Regional Weather Roundup
Issued by NWS

Home | Current Version | Previous Version | Text Only | Print | Product List | Glossary On
Versions: 1 2 3 4 5 6 7 8 9 10 11 12 13 14 15 16 17 18 19 20 21 22 23 24 25 26 27 28 29 30 31 32 33 34 35 36 37 38 39 40 41 42 43 44 45 46 47 48 49 50
000
ASUS44 KEWX 240103
RWRTX
SOUTH TEXAS REGIONAL WEATHER ROUNDUP
NATIONAL WEATHER SERVICE AUSTIN/SAN ANTONIO TX
800 PM CDT TUE MAY 23 2017

NOTE: "FAIR" INDICATED FEW OR NO CLOUDS BELOW 12,000 FEET WITH NO
SIGNIFICANT WEATHER AND/OR OBSTRUCTIONS TO VISIBILITY.

* - THESE STATIONS ARE NOT NWS OR FAA STATIONS...AND ARE NOT SUBJECT
    TO NWS AND FAA QUALITY CONTROL.

TXZ171-172-183>190-240200-
TEXAS HILL COUNTRY AND EDWARDS PLATEAU

CITY           SKY/WX    TMP DP  RH WIND       PRES   REMARKS
JUNCTION       CLEAR     68  50  52 NW7       29.96F
*LLANO         CLEAR     68  54  60 N9        29.97S
BURNET         PTCLDY    64  55  72 NW9       29.95R
*HORSESHOE BAY NOT AVBL
*KERRVILLE     PTCLDY    65  53  66 N14       29.95F
*FREDERICKSBRG MOCLDY    64  51  61 N9G17     29.96S
*ROCKSPRINGS   CLEAR     64  52  63 N9G17     30.01R
*BOERNE STAGE  CLOUDY    64  54  68 N10G21    29.94R
*CASTROVILLE   PTCLDY    69  52  53 N10G18    29.92R
HONDO          CLEAR     69  54  58 N17       29.91R
*UVALDE        PTCLDY    71  56  58 N10G17    29.92R
DEL RIO        CLEAR     74  55  51 N9        29.93R
LAUGHLIN AFB   PTCLDY    74  60  60 N10       29.94R
CARRIZO SPRGS  MOCLDY    79  68  69 N10G16    29.84R
*EAGLE PASS    NOT AVBL
$$

TXZ173-191>194-202-209-217>225-228-240200-
CENTRAL AND SOUTH CENTRAL TEXAS

CITY           SKY/WX    TMP DP  RH WIND       PRES   REMARKS
GEORGETOWN     NOT AVBL
AUSTIN/BERGSTM CLOUDY    66  57  72 NW14      29.89F
AUSTIN/MABRY   CLOUDY    64  57  78 N7        29.91S
*AUSTIN/EXEC   MOCLDY    64  57  77 N9        29.90F
*LAGO VISTA    CLOUDY    62  57  83 NW5       29.92F
SAN MARCOS     CLOUDY    66  57  72 N16       29.91R
NEW BRAUNFELS  LGT RAIN  69  57  65 N22G32    29.89R
RANDOLPH AFB   MOCLDY    69  55  61 N21G30    29.89R
PT SAN ANTONIO CLEAR     69  55  59 N26G32    29.88R
SAN ANTONIO    MOCLDY    69  54  58 N16G28    29.90R
STINSON FIELD  PTCLDY    71  53  52 N14G26    29.87R
*LA GRANGE     MOCLDY    67  65  91 N12G17    29.86F
*GIDDINGS      MOCLDY    64  62  93 N9        29.89S
*GONZALES      CLOUDY    67  62  84 N13G22    29.88R
$$

TXZ163>164-176>182-195>201-210>213-226-227-235-240200-
SOUTHEAST TEXAS

CITY           SKY/WX    TMP DP  RH WIND       PRES   REMARKS
COLLEGE STN    MOCLDY    65  61  87 NW14      29.88R
*BRYAN         CLOUDY    64  62  93 NW10G18   29.89R
*CALDWELL      NOT AVBL
*CROCKETT      LGT RAIN  66  64  94 NW13G18   29.84R
*BRENHAM       LGT RAIN  67  66  97 NW13G18   29.87F
HUNTSVILLE     RAIN      67  64  90 VRB6      29.84R FOG
CONROE         RAIN      67  63  87 NW16G25   29.85R FOG
HOUSTON BUSH   TSTM      75  65  70 NW18G35   29.78R
HOUSTON HOBBY  TSTM      78  68  71 E8        29.72F
*HOUSTON SW AP TSTM      71  67  86 NW35G52   29.79R
PEARLAND       LGT RAIN  82  66  58 E7        29.70F
HOUSTON HOOKS  LGT RAIN  69  64  84 NW20G32   29.80R
ELLINGTON FLD  TSTM      79  66  65 E7        29.72F
SUGAR LAND     TSTM      71  68  90 NW14G24   29.78R FOG
*HOUSTON EXEC  CLOUDY    68  64  88 N20G30    29.82R FOG
*CLEVELAND MUN TSTM      73  65  76 NW20G26   29.83R
*WHARTON       CLOUDY    80  65  60 W5        29.76R
*COLUMBUS      LGT RAIN  67  62  81 N15G26    29.83F
*EAGLE LAKE    MOCLDY    68  66  92 N16G25    29.82S
$$

TXZ214>216-236>238-240200-
THE UPPER TEXAS COAST

CITY           SKY/WX    TMP DP  RH WIND       PRES   REMARKS
*ORANGE        CLEAR     74  67  80 CALM      29.77R
PORT ARTHUR    CLEAR     76  64  66 N7        29.75R
GALVESTON      PTCLDY    78  70  76 SE10      29.72F
ANGLETON       MOCLDY    78  70  76 S9        29.74F
*BAY CITY      CLOUDY    78  71  81 S7        29.75R
PALACIOS       CLOUDY    77  71  82 S3        29.76R
$$

TXZ229>234-239>247-240200-
TEXAS COASTAL BEND AND RIO GRANDE PLAINS

CITY           SKY/WX    TMP DP  RH WIND       PRES   REMARKS
VICTORIA       CLOUDY    81  68  64 NW12      29.78R
*BEEVILLE      CLOUDY    84  71  63 W17G40    29.76R THUNDER
ROCKPORT       CLOUDY    79  70  74 E10       29.72F
*PORT ARANSAS  CLOUDY    78  73  83 E6        29.75R
*PORT LAVACA   CLOUDY    81  73  76 CALM      29.75S
*INGLESIDE     CLOUDY    80  73  79 E8        29.73S
CORPUS CHRISTI CLOUDY    81  72  74 S8        29.73F
CORPUS NAS     MOCLDY    80  75  84 S15       29.72F
*ROBSTOWN      CLOUDY    83  73  71 SE3       29.76R
ALICE          CLOUDY    84  70  62 SW6       29.74S
KINGSVILLE NAS MOCLDY    81  76  84 S12       29.75R
COTULLA        MOCLDY    77  66  68 N10       29.84R
*FAITH RANCH   CLOUDY    82  68  61 N13G18    29.85R
LAREDO         MOCLDY    85  71  63 N9        29.82R HX  90
$$

TXZ248>255-240200-
DEEP SOUTH TEXAS

CITY           SKY/WX    TMP DP  RH WIND       PRES   REMARKS
BROWNSVILLE    PTCLDY    85  74  69 NE8       29.75R HX  92
PORT ISABEL    PTCLDY    81  75  82 E3        29.75R
*SOUTH PADRE   NOT AVBL
HARLINGEN      CLEAR     82  76  81 N7        29.75R
*HEBBRONVILLE  CLOUDY    85  67  56 CALM      29.79S
MCALLEN        CLOUDY    84  74  71 E5        29.78R HX  91
*WESLACO       CLEAR     82  73  73 NE5       29.76R
FALFURRIAS     CLOUDY    82  73  74 SE6       29.76R
EDINBURG       MOCLDY    85  72  65 E10       29.77R HX  91
*ZAPATA        PTCLDY    85  69  59 NW7       29.78R
$$

TXZ213>215-236>238-242>244-246-247-251-254-255-240200-
CMAN STATIONS

STATION/POSITION TIME  TEMP    WIND        PRES    WAVE
                       AIR SEA DIR/SP/G            HT/PER
                 (UTC) (F)     (DEG/KT/KT) (MB)    (FT/S)
SABINE PASS      0030   78 81   10/  5/  5 1008.8
SEA RIM ST PARK  0000   78      30/  2/  3 1007.6
NORTH JETTY/GLS  0030      81  150/  8/  9 1006.3
EAGLE POINT      0030   78 83  160/ 12/ 13 1005.8
MORGANS POINT    0030   80 80   90/  7/  9 1006.3
MISSION/ARANSAS  0000   80                 1007.0
PORT O`CONNOR    0030   78     180/  6/  7 1006.8
PORT ARANSAS     0000   77 81  110/  7/  8 1007.3
MALAQUITE BEACH  0030   78 82  110/  9/ 10 1007.6
BAFFIN BAY       0030   78 84              1007.3
PORT ISABEL      0030   81 84   10/  3/  5 1007.4
$$

GMZ080-GMZ150>470-240200-
OFFSHORE BUOY REPORTS

STATION/POSITION TIME  TEMP    WIND        PRES    WAVE
                       AIR SEA DIR/SP/G            HT/PER
                 (UTC) (F)     (DEG/KT/KT) (MB)    (FT/S)
20 E GALVESTON   2350   76 80  160/  6/  8 1007.5    2/ 7
90 E PT ARANSAS  2350   77 81   20/  2/  4 1007.5    3/ 7
35 NE PT MANSFLD 0050   78      40/  8/  8 1006.3    3/ 8
200 E PT ISABEL  2350   80 80   10/  8/ 10 1006.9    2/ 6
$$



USA.gov is the U.S. government's official web portal to all federal, state and local government web resources and services.